User: anonymous   Login
Location: Unspecified
(0.0000°N, 0.0000°E)
Time: 06:15:07
(UTC+00:00)
Language:

ADEOS - Orbit

View from above orbital plane
View from above orbital plane
View from above satellite
View from above satellite

Ground track
Ground track

The orbit data is extracted from the following two-line orbital elements,

1 24277U 96046A   18199.83997619 -.00000019  00000-0  10138-4 0  9995
2 24277  98.7731 156.3078 0000313 170.0293 190.0895 14.29420577142884
Epoch (UTC): 18 July 2018 20:09:33
Eccentricity: 0.0000313
inclination: 98.7731°
perigee height: 793 km
apogee height: 794 km
right ascension of ascending node: 156.3078°
argument of perigee: 170.0293°
revolutions per day: 14.29420577
mean anomaly at epoch: 190.0895°
orbit number at epoch: 14288

The dashed part of the orbit path shows where the satellite is in the earth's shadow,  

DLR